Flag for U.S.A. Weather past 2 weeks in Riverside, California, U.S.A.

Now
53 °F

Passing clouds.


Feels Like: 53 °F
Forecast: 46 / 55 °F
Wind: No wind

Location: Riverside Municipal Airport

Current Time: Mar 1, 2015 at 8:22:50 PM

Latest Report: Mar 1, 2015 at 7:53 PM


Visibility: 10 mi

Pressure: 29.90 "Hg

Humidity: 69%

Dew point: 43 °F

Location of RiversideLocation

Historic Weather in Riverside — Graph

°F

Riverside temperature yesterday

Maximum temperature yesterday: 62 °F (at 12:53 PM)
Minimum temperature yesterday: 51 °F (at 6:53 AM)
Average temperature yesterday: 56 °F

Past Weeks' High & Low Weather Summary

 TemperatureHumidityPressure
High81 °F (Feb 15, 1:53 PM)97% (Feb 18, 6:53 AM)30.20 "Hg (Feb 18, 6:53 AM)
Low41 °F (Feb 24, 5:53 AM)15% (Feb 24, 3:53 PM)29.72 "Hg (Feb 27, 5:53 PM)
Average58 °F65%29.95 "Hg
* Reported Feb 14 6:53 PM — Mar 1 6:53 PM, Riverside, Weather by CustomWeather, © 2015

Note: Actual official high and low records may vary slightly from our data, if they occured in-between our weather recording intervals... More about our weather records

Advertising

Riverside weather history for previous 24 hours

 ConditionsComfort  
Time TempWeatherWind HumidityBarometerVisibility
6:53 PM
Sun, Mar 1
52 °FPassing clouds.8 mph72%29.89 "Hg10 mi
5:53 PM54 °FPassing clouds.6 mph67%29.90 "Hg10 mi
4:53 PM56 °FBroken clouds.7 mph60%29.87 "Hg10 mi
3:53 PM56 °FPartly sunny.10 mph60%29.86 "Hg10 mi
2:53 PM56 °FMostly cloudy.8 mph65%29.89 "Hg10 mi
1:53 PM56 °FMostly cloudy.14 mph62%29.87 "Hg10 mi
12:53 PM56 °FMostly cloudy.10 mph67%29.92 "Hg10 mi
11:53 AM54 °FLight rain. Broken clouds.13 mph74%29.90 "Hg10 mi
10:53 AM54 °FLight rain. Mostly cloudy.6 mph77%29.94 "Hg10 mi
9:53 AM54 °FMostly cloudy.10 mph74%29.93 "Hg10 mi
8:53 AM53 °FBroken clouds.No wind83%29.92 "Hg10 mi
7:53 AM51 °FOvercast.No wind89%29.92 "Hg10 mi
6:53 AM50 °FBroken clouds.No wind89%29.90 "Hg9 mi
5:53 AM50 °FPartly cloudy.3 mph89%29.90 "Hg10 mi
4:53 AM50 °FMostly cloudy.No wind89%29.89 "Hg10 mi
3:53 AM50 °FMostly cloudy.5 mph89%29.88 "Hg10 mi
3:00 AM50 °FLight rain. Mostly cloudy.No wind89%29.93 "Hg7 mi
2:53 AM50 °FLight rain. Overcast.3 mph89%29.90 "Hg8 mi
1:53 AM51 °FMostly cloudy.No wind80%29.90 "Hg10 mi
12:53 AM51 °FPassing clouds.No wind80%29.90 "Hg10 mi
11:53 PM
Sat, Feb 28
52 °FPassing clouds.No wind75%29.89 "Hg10 mi
10:53 PM53 °FPassing clouds.No wind77%29.89 "Hg10 mi
9:53 PM52 °FPassing clouds.No wind77%29.88 "Hg10 mi
8:53 PM54 °FPassing clouds.3 mph72%29.87 "Hg10 mi
Weather by CustomWeather, © 2015

See weather overviewHow to use our weather pages